Location: Home
(42.5358°N, 72.7383°W)
Time: 20:51:08
(UTC-05:00)

Transit 2A Rocket - Pass Details

Date: 13 November 2025
Orbit: 580 x 903 km, 66.7° (Epoch: 14 December)

Event Time Altitude Azimuth Distance (km) Brightness Sun altitude
Rises 17:57:55 0° 282° (WNW) 3,300 9.6 -16.3°
Reaches altitude 10° 18:02:40 10° 319° (NW) 2,459 8.0 -17.1°
Maximum altitude 18:04:01 11° 333° (NNW) 2,427 7.8 -17.4°
Drops below altitude 10° 18:05:21 10° 347° (NNW) 2,502 7.7 -17.6°
Enters shadow 18:09:36 - 19° (NNE) 3,288 8.0 -18.4°
